Regional Weather Roundup
Issued by NWS

Home | Current Version | Previous Version | Graphics & Text | Print | Product List | Glossary On
Versions: 1 2 3 4 5 6 7 8 9 10 11 12 13 14 15 16 17 18 19 20 21 22 23 24 25 26 27 28 29 30 31 32 33 34 35 36 37 38 39 40 41 42 43 44 45 46 47 48 49 50
000
ASUS45 KBOU 251207
RWRCO

WEATHER ROUNDUP FOR COLORADO
NATIONAL WEATHER SERVICE DENVER/BOULDER CO
600 AM MDT TUE JUL 25 2017

NOTE: "FAIR" INDICATES FEW OR NO CLOUDS BELOW 12000 FEET WITH NO
SIGNIFICANT WEATHER AND/OR OBSTRUCTIONS TO VISIBILITY.

COZ001>005-013-030-031-251300-
...NORTHWEST COLORADO...

CITY           SKY/WX    TMP DP  RH WIND       PRES   REMARKS
CRAIG          CLOUDY    64  52  64 W6        30.23R
HAYDEN         MOCLDY    64  46  52 S6        30.26R
MEEKER         CLOUDY    60  58  92 E3        30.26R
RABBIT EARS PA CLOUDY    50  45  81 NW9       30.52S
STEAMBOAT SPGS FAIR      60  46  61 CALM      30.28R
WALDEN         FAIR      54  41  62 SE3       30.34S
$$

COZ006>008-011-251300-
...WEST CENTRAL VALLEYS...

CITY           SKY/WX    TMP DP  RH WIND       PRES   REMARKS
GRAND JUNCTION RAIN      65  65 100 S5        30.16R
MONTROSE       RAIN      63  61  93 NE6       30.23S
EAGLE          LGT RAIN  63  54  72 E5        30.29R
RIFLE          LGT RAIN  63  61  93 SW3       30.22S
DELTA          RAIN      67  62  84 CALM      30.20S
NUCLA          CLOUDY    63  59  88 E3        30.27R
$$

COZ017>023-064>068-251300-
...SOUTHWEST COLORADO...

CITY           SKY/WX    TMP DP  RH WIND       PRES   REMARKS
DURANGO        CLOUDY    60  57  89 CALM      30.28R
CORTEZ         MOCLDY    63  62  97 E3        30.22R
PAGOSA SPRINGS MOCLDY    60  56  86 CALM      30.36S
TELLURIDE      CLOUDY    55  53  91 SE3       30.44S
WOLF CREEK PAS RAIN      45  45 100 S7        30.67S
$$

COZ009-010-012-014-032>034-037-058>063-251300-
...CENTRAL COLORADO...

CITY           SKY/WX    TMP DP  RH WIND       PRES   REMARKS
ASPEN          CLOUDY    60  50  69 CALM      30.33S
BUENA VISTA    CLOUDY    58  53  84 NW3       30.38S
COPPER MTN     DRIZZLE   52  43  71 S16       30.64S
BERTHOUD PASS  CLOUDY    46  32  57 NW10G18   30.67S
COTTONWOOD PAS DRIZZLE   55  46  71 SW16      30.50S
GUNNISON       LGT RAIN  57  54  89 NE7       30.38R
KREMMLING      FAIR      64  46  52 E5        30.32R
LEADVILLE      LGT RAIN  50  47  89 NE3       30.50R
MONARCH PASS   CLOUDY    45  43  93 SW14      30.74S
SALIDA         CLOUDY    65  51  60 CALM      30.42R
SUNLIGHT       MOCLDY    46  41  81 CALM      30.56S
WILKERSON PASS CLOUDY    50  41  71 SW12G20   30.59S
$$

COZ069>075-251300-
...SAN LUIS VALLEY/SANGRE DE CRISTO MOUNTAINS...

CITY           SKY/WX    TMP DP  RH WIND       PRES   REMARKS
ALAMOSA        CLOUDY    58  56  93 CALM      30.33R
DEL NORTE      CLOUDY    60  51  72 S5        30.38R
LA VETA PASS   NOT AVBL
SAGUACHE         N/A    N/A N/A N/A MISG        N/A
$$

COZ035-036-038>040-251300-
...NORTHERN COLORADO FRONT RANGE...

CITY           SKY/WX    TMP DP  RH WIND       PRES   REMARKS
DENVER INTL AP MOCLDY    72  48  42 SW13      30.06R
DMNS CITY PARK   N/A     70  48  46 SW5       30.07R
AURORA         MOCLDY    70  49  47 SW12      30.08S
FRONT RANGE AP FAIR      73  46  38 SW9       30.08R
ERIE MUNI ARPT FAIR      62  49  63 CALM      30.05R
BOULDER MUN AP FAIR      68  46  45 S3        30.06R
CENTENNIAL     MOCLDY    70  46  42 S9        30.10R
BROOMFIELD     FAIR      68  43  40 CALM      30.09R
FORT COLLINS   FAIR      65  51  60 N5        30.04R
LONGMONT       FAIR      67  49  52 CALM      30.06R
$$

COZ041-046-047-076>085-087-088-251300-
...PIKES PEAK/PALMER DIVIDE AND SOUTHERN FOOTHILLS...

CITY           SKY/WX    TMP DP  RH WIND       PRES   REMARKS
COLO. SPRINGS  MOCLDY    67  56  67 N3        30.17R
A. F. ACADEMY  FAIR      73  45  36 SW8       30.18R
SCHRIEVER AFB  MOCLDY    65  53  64 N6        30.17R
CHEYENNE MTN   MOCLDY    70  42  35 CALM      30.17R
ELLICOTT       NOT AVBL
FALCON           N/A     64  47  54 W15       30.22S
FORT CARSON    MOCLDY    65  54  66 N3        30.13R
LIMON          FAIR      59  59 100 CALM      30.11R
MONUMENT HILL  FAIR      64  46  52 SW8       30.24R
CANON CITY     CLEAR     73  52  46 W8        30.10S
WALSENBURG     FAIR      72  54  53 SW9       30.16F
TRINIDAD       FAIR      69  51  52 W5        30.15S
$$

COZ042>045-048>051-090-091-251300-
...NORTHEAST COLORADO...

CITY           SKY/WX    TMP DP  RH WIND       PRES   REMARKS
GREELEY ARPT   FAIR      59  55  87 W6        30.02S
AKRON          FAIR      67  60  78 S10       30.03S
BURLINGTON     FAIR      69  64  84 S15       30.04S
WRAY           NOT AVBL
YUMA           FAIR      64  61  88 S8        30.00S
STERLING       FAIR      64  61  88 S3        29.98S
HOLYOKE        FAIR      66  61  82 S6        30.00R
FORT MORGAN    FAIR      64  57  77 E3        30.02S
$$

COZ086-089-092>099-251300-
...SOUTHEAST COLORADO...

CITY           SKY/WX    TMP DP  RH WIND       PRES   REMARKS
PUEBLO         FAIR      68  54  60 W5        30.04F
LA JUNTA       FAIR      73  57  57 S10       30.02F
LAMAR          FAIR      68  62  81 SE6       30.00S
SPRINGFIELD      N/A     67  62  84 S15       30.08S
$$



USA.gov is the U.S. government's official web portal to all federal, state and local government web resources and services.